[[{"header":{"parameterUnit":"m.s-1","parameterCategory":1,"la1":30.2991,"la2":30.254,"lo1":-89.0895,"lo2":-89.0444,"dy":0.0017,"dx":0.0017,"nx":28,"ny":28,"refTime":"2023-09-19T03:00:00:Z","depth":0,"parameterNumber":2,"parameterNumberName":"U-component_of_WINDS"},"data":[0,0,0,0,0,0,0,0,0,0,0,0,0,0,0,0,0,0,0,0,0,0,0,0,0,0,0,0,0,0,0,0,0,0,0,0,0,0,0,0,0,0,0,0,0,0,0,0,0,0,0,0,0,0,0,0,0,0,-2.65,-2.6502,0,-2.6689,-2.6691,-2.6693,-2.6769,-2.6769,-2.6769,-2.6768,-2.6952,-2.6957,-2.6963,0,0,0,0,0,0,0,0,0,0,0,0,0,-2.62,-2.6205,-2.65,-2.6502,-2.6505,-2.6688,-2.6691,-2.6693,-2.6769,-2.6769,-2.6768,-2.6768,-2.6951,-2.6957,-2.6963,0,0,0,0,0,0,0,0,0,0,0,0,0,-2.6353,-2.6206,-2.65,-2.6565,-2.6573,-2.6688,-2.6691,-2.6694,-2.677,-2.6769,-2.6768,-2.6768,-2.6948,-2.6956,-2.6964,-2.7025,0,0,-2.6988,-2.6992,0,0,0,0,0,0,0,0,-2.6344,-2.6364,-2.6553,-2.6561,-2.657,-2.6705,-2.6653,-2.6805,-2.677,-2.6695,-2.6768,-2.6768,-2.687,-2.6884,-2.6921,-2.7033,-2.7041,-2.6989,-2.6994,-2.6997,-2.6999,0,0,0,0,0,0,0,-2.6333,-2.6356,-2.6574,-2.6556,-2.6566,-2.6583,-2.6604,-2.6682,-2.6783,-2.6701,-2.6707,-2.6729,-2.6874,-2.6913,-2.6925,-2.7044,-2.6989,-2.6996,-2.7,-2.7004,-2.7219,-2.722,0,0,0,0,0,0,-2.6313,-2.6347,-2.6568,-2.658,-2.6453,-2.6589,-2.6612,-2.6662,-2.6782,-2.68,-2.6729,-2.6732,-2.69,-2.6916,-2.6932,-2.7013,-2.6997,-2.7004,-2.7009,-2.7218,-2.7219,-2.722,0,0,0,0,0,0,-2.6306,-2.6332,-2.6561,-2.6465,-2.6496,-2.6595,-2.665,-2.6666,-2.6705,-2.6804,-2.6821,-2.675,-2.69,-2.6921,-2.7003,-2.702,-2.7008,-2.7015,-2.7217,-2.7218,-2.722,-2.7174,0,0,0,0,0,0,-2.6297,-2.6329,-2.6355,-2.6465,-2.6501,-2.6629,-2.6651,-2.667,-2.6719,-2.6724,-2.6828,-2.6845,-2.6901,-2.699,-2.701,-2.7031,-2.7021,-2.7215,-2.7217,-2.7219,-2.7174,-2.7174,-2.7173,0,0,0,0,0,-2.6286,-2.6332,-2.6356,-2.6382,-2.6535,-2.663,-2.665,-2.6716,-2.672,-2.6746,-2.681,-2.6842,-2.7016,-2.6998,-2.7021,-2.7044,-2.7215,-2.7217,-2.7219,-2.7174,-2.7174,-2.7173,0,0,0,0,0,0,-2.6216,-2.6347,-2.6375,-2.6458,-2.6533,-2.6643,-2.6677,-2.6713,-2.6786,-2.6787,-2.6863,-2.6886,-2.6961,-2.7011,-2.6989,-2.7111,-2.7117,-2.7124,-2.7076,-2.7076,-2.7075,-2.7061,-2.7028,0,0,0,0,0,-2.6212,-2.6281,-2.639,-2.6453,-2.649,-2.6577,-2.6621,-2.6666,-2.6745,-2.6776,-2.6846,-2.692,-2.6991,-2.7036,-2.7107,-2.7182,-2.7206,-2.721,-2.7209,-2.7209,-2.7213,-2.7258,-2.7261,-2.7227,-2.7227,-2.7227,0,0,-2.62,-2.628,-2.6319,-2.6441,-2.6504,-2.6573,-2.6603,-2.6673,-2.6724,-2.6786,-2.6868,-2.6922,-2.7009,-2.7088,-2.7127,-2.7132,-2.7228,-2.7211,-2.721,-2.7215,-2.7261,-2.7264,-2.7266,-2.7229,-2.7229,-2.7228,0,0,-2.6215,-2.6283,-2.6344,-2.6408,-2.6505,-2.6563,-2.6578,-2.6684,-2.6723,-2.6808,-2.6857,-2.6917,-2.7038,-2.7099,-2.7146,-2.7188,-2.722,-2.7209,-2.7205,-2.7248,-2.7251,-2.7253,-2.7269,-2.7273,-2.7213,-2.7213,-2.7213,0,-2.6188,-2.6296,-2.6369,-2.6439,-2.6491,-2.6555,-2.6616,-2.6674,-2.6787,-2.6821,-2.6827,-2.6983,-2.7045,-2.7141,-2.7151,-2.7187,-2.7205,-2.7196,-2.7245,-2.7248,-2.7252,-2.7267,-2.7273,-2.7211,-2.7211,-2.7212,-2.7212,0,-2.6258,-2.6332,-2.6369,-2.6482,-2.6538,-2.6602,-2.6685,-2.6733,-2.6774,-2.6831,-2.6917,-2.6995,-2.7085,-2.7111,-2.7149,-2.7212,-2.7213,-2.723,-2.7238,-2.7252,-2.7268,-2.7274,-2.7208,-2.7209,-2.721,-2.721,0,0,-2.6232,-2.6388,-2.64,-2.6453,-2.6566,-2.6624,-2.6691,-2.6782,-2.6822,-2.6899,-2.6957,-2.706,-2.7079,-2.7131,-2.7178,-2.7216,-2.7245,-2.7229,-2.7233,-2.723,-2.7319,-2.7305,-2.731,-2.7267,-2.7269,-2.727,-2.7312,0,-2.6262,-2.6389,-2.6459,-2.6556,-2.6625,-2.6688,-2.6747,-2.6822,-2.6878,-2.6943,-2.7004,-2.7076,-2.7095,-2.7128,-2.7168,-2.7233,-2.7264,-2.7231,-2.7321,-2.7323,-2.7296,-2.7319,-2.7303,-2.7339,-2.7319,-2.732,-2.732,0,-2.6314,-2.6395,-2.6499,-2.6607,-2.6639,-2.6691,-2.6781,-2.6843,-2.6929,-2.6967,-2.7028,-2.7075,-2.7148,-2.7152,-2.7252,-2.7228,-2.727,-2.7307,-2.731,-2.732,-2.7322,-2.7329,-2.7352,-2.7357,-2.7331,-2.733,-2.7329,0,-2.6285,-2.6419,-2.65,-2.6543,-2.6671,-2.6706,-2.676,-2.6846,-2.6897,-2.6975,-2.7009,-2.7093,-2.7138,-2.7202,-2.727,-2.7266,-2.7364,-2.7373,-2.7397,-2.7395,-2.7413,-2.7411,-2.7442,-2.744,-2.744,-2.744,-2.744,0,-2.6312,-2.6373,-2.649,-2.6539,-2.661,-2.6689,-2.6756,-2.6815,-2.6892,-2.6953,-2.7011,-2.7066,-2.7153,-2.7219,-2.7273,-2.7348,-2.7368,-2.74,-2.7413,-2.7395,-2.7391,-2.7422,-2.7421,-2.7442,-2.7441,-2.7441,-2.7441,0,-2.6291,-2.6372,-2.6464,-2.6579,-2.6609,-2.6656,-2.6753,-2.6803,-2.6863,-2.694,-2.6962,-2.7056,-2.7137,-2.7212,-2.7318,-2.7354,-2.743,-2.7448,-2.7402,-2.7409,-2.7429,-2.7426,-2.7481,-2.7492,-2.7482,-2.7482,-2.7482,0,-2.6303,-2.6353,-2.6474,-2.6521,-2.6575,-2.6649,-2.6702,-2.6782,-2.6835,-2.6939,-2.6976,-2.7062,-2.7135,-2.7261,-2.7337,-2.7419,-2.7439,-2.7453,-2.7451,-2.7431,-2.7439,-2.7435,-2.744,-2.745,-2.745,-2.745,-2.745,0,-2.6315,-2.6353,-2.643,-2.6521,-2.6584,-2.6658,-2.6734,-2.6768,-2.6863,-2.6919,-2.7004,-2.7061,-2.7173,-2.7257,-2.7348,-2.7402,-2.7441,-2.745,-2.746,-2.7441,-2.7413,-2.7429,-2.7399,-2.7448,-2.7448,-2.7448,-2.7448,-2.7449,-2.6312,-2.6359,-2.6453,-2.6537,-2.6603,-2.6674,-2.6727,-2.6796,-2.6869,-2.6968,-2.701,-2.7096,-2.7183,-2.731,-2.7364,-2.7432,-2.744,-2.7454,-2.7458,-2.746,-2.7456,-2.7403,-2.7449,-2.7449,-2.7449,-2.7449,-2.7449,0,-2.6327,-2.6392,-2.6468,-2.6575,-2.664,-2.6675,-2.6762,-2.6814,-2.689,-2.6969,-2.7041,-2.7139,-2.7222,-2.7306,-2.7393,-2.7431,-2.7451,-2.7451,-2.7449,-2.7461,-2.7444,-2.7427,-2.7434,-2.7434,-2.7434,-2.7434,-2.7434,-2.7434,-2.6343,-2.6427,-2.6476,-2.6593,-2.6656,-2.6744,-2.679,-2.6855,-2.6919,-2.7027,-2.7098,-2.7153,-2.7234,-2.7328,-2.7405,-2.7428,-2.7457,-2.7452,-2.7479,-2.7461,-2.7462,-2.7462,-2.7447,-2.7457,-2.7457,-2.749,-2.749,-2.7491]},{"header":{"parameterUnit":"m.s-1","parameterCategory":1,"la1":30.2991,"la2":30.254,"lo1":-89.0895,"lo2":-89.0444,"dy":0.0017,"dx":0.0017,"nx":28,"ny":28,"refTime":"2023-09-19T03:00:00:Z","depth":0,"parameterNumber":3,"parameterNumberName":"V-component_of_WINDS"},"data":[0,0,0,0,0,0,0,0,0,0,0,0,0,0,0,0,0,0,0,0,0,0,0,0,0,0,0,0,0,0,0,0,0,0,0,0,0,0,0,0,0,0,0,0,0,0,0,0,0,0,0,0,0,0,0,0,0,0,-1.6158,-1.6159,0,-1.6202,-1.6203,-1.6203,-1.6232,-1.6233,-1.6233,-1.6233,-1.6276,-1.6277,-1.6278,0,0,0,0,0,0,0,0,0,0,0,0,0,-1.6096,-1.6097,-1.6158,-1.6159,-1.616,-1.6202,-1.6203,-1.6204,-1.6232,-1.6233,-1.6233,-1.6233,-1.6275,-1.6277,-1.6278,0,0,0,0,0,0,0,0,0,0,0,0,0,-1.613,-1.6097,-1.6158,-1.6179,-1.6181,-1.6202,-1.6203,-1.6204,-1.6232,-1.6233,-1.6233,-1.6233,-1.6275,-1.6276,-1.6278,-1.6281,0,0,-1.6282,-1.6283,0,0,0,0,0,0,0,0,-1.6128,-1.6132,-1.6175,-1.6178,-1.618,-1.6212,-1.6197,-1.6229,-1.6232,-1.6213,-1.6233,-1.6233,-1.6254,-1.6257,-1.6265,-1.6283,-1.6285,-1.6282,-1.6283,-1.6284,-1.6284,0,0,0,0,0,0,0,-1.6126,-1.613,-1.6176,-1.6176,-1.6179,-1.6185,-1.619,-1.6203,-1.6231,-1.6215,-1.6217,-1.6222,-1.6256,-1.6263,-1.6266,-1.6285,-1.6282,-1.6284,-1.6284,-1.6285,-1.6306,-1.6306,0,0,0,0,0,0,-1.612,-1.6128,-1.6174,-1.6177,-1.6154,-1.6186,-1.6192,-1.6202,-1.6231,-1.6236,-1.6221,-1.6223,-1.6261,-1.6264,-1.6268,-1.6272,-1.6284,-1.6285,-1.6286,-1.6306,-1.6306,-1.6306,0,0,0,0,0,0,-1.6119,-1.6124,-1.6173,-1.6153,-1.616,-1.6187,-1.6198,-1.6202,-1.621,-1.6236,-1.6241,-1.6225,-1.6261,-1.6266,-1.6277,-1.6274,-1.6286,-1.6287,-1.6307,-1.6306,-1.6306,-1.6282,0,0,0,0,0,0,-1.6117,-1.6123,-1.6126,-1.6153,-1.6161,-1.6182,-1.6198,-1.6203,-1.6213,-1.6215,-1.6241,-1.6245,-1.6262,-1.6275,-1.6279,-1.6276,-1.6288,-1.6307,-1.6307,-1.6306,-1.6283,-1.628,-1.6278,0,0,0,0,0,-1.6115,-1.6117,-1.6126,-1.6131,-1.6164,-1.6182,-1.6186,-1.6206,-1.6213,-1.6215,-1.6231,-1.6244,-1.6274,-1.6276,-1.628,-1.6278,-1.6307,-1.6307,-1.6306,-1.6284,-1.6281,-1.6278,0,0,0,0,0,0,-1.6088,-1.6121,-1.6131,-1.6143,-1.6159,-1.6187,-1.619,-1.6203,-1.6217,-1.6219,-1.6242,-1.6247,-1.6256,-1.6269,-1.627,-1.6282,-1.6292,-1.6292,-1.6274,-1.6271,-1.6269,-1.6265,-1.6289,0,0,0,0,0,-1.6083,-1.6096,-1.6124,-1.6131,-1.6139,-1.6163,-1.6171,-1.6185,-1.6203,-1.621,-1.6228,-1.6244,-1.6257,-1.6265,-1.6278,-1.6285,-1.629,-1.6286,-1.6283,-1.6281,-1.6281,-1.6284,-1.6282,-1.6304,-1.6304,-1.6304,0,0,-1.6074,-1.6094,-1.61,-1.6126,-1.6141,-1.6152,-1.6169,-1.618,-1.6188,-1.6212,-1.6224,-1.6237,-1.6256,-1.6265,-1.627,-1.6275,-1.6276,-1.628,-1.6279,-1.628,-1.6283,-1.6281,-1.6279,-1.6303,-1.6303,-1.6303,0,0,-1.6063,-1.6079,-1.6087,-1.6101,-1.6123,-1.6139,-1.614,-1.6166,-1.6176,-1.6188,-1.6205,-1.6215,-1.6237,-1.625,-1.6259,-1.6251,-1.6264,-1.6255,-1.6243,-1.6246,-1.6244,-1.6243,-1.6239,-1.6237,-1.6255,-1.6255,-1.6255,0,-1.6048,-1.6067,-1.6089,-1.6099,-1.6109,-1.6131,-1.6138,-1.6151,-1.6176,-1.6182,-1.6188,-1.6215,-1.623,-1.6241,-1.6239,-1.6247,-1.6248,-1.6252,-1.6243,-1.6242,-1.6241,-1.6237,-1.6236,-1.6254,-1.6254,-1.6254,-1.6254,0,-1.6047,-1.606,-1.6063,-1.6087,-1.6097,-1.6106,-1.6128,-1.6136,-1.6148,-1.6163,-1.6174,-1.6193,-1.621,-1.6213,-1.6226,-1.6226,-1.6229,-1.6239,-1.6249,-1.6237,-1.6234,-1.6233,-1.6252,-1.6252,-1.6253,-1.6253,0,0,-1.6021,-1.6056,-1.6057,-1.6067,-1.6093,-1.6102,-1.6111,-1.6128,-1.6134,-1.615,-1.6157,-1.6175,-1.6184,-1.6194,-1.6208,-1.621,-1.6201,-1.622,-1.6221,-1.6215,-1.6202,-1.6193,-1.6192,-1.621,-1.621,-1.621,-1.62,0,-1.6013,-1.6031,-1.605,-1.6061,-1.6072,-1.6092,-1.6099,-1.6115,-1.6129,-1.6139,-1.6154,-1.6165,-1.6177,-1.6183,-1.6187,-1.6202,-1.6199,-1.6203,-1.6215,-1.6216,-1.6209,-1.619,-1.6182,-1.6172,-1.6199,-1.6198,-1.6198,0,-1.6006,-1.6021,-1.6033,-1.6056,-1.6062,-1.6068,-1.6084,-1.6095,-1.6112,-1.6122,-1.6133,-1.6148,-1.6156,-1.6166,-1.6178,-1.618,-1.6186,-1.6194,-1.6194,-1.6196,-1.6206,-1.619,-1.6169,-1.6167,-1.6197,-1.6197,-1.6197,0,-1.5984,-1.6008,-1.6018,-1.6026,-1.6054,-1.6057,-1.6069,-1.6087,-1.6096,-1.611,-1.6115,-1.613,-1.6137,-1.6148,-1.6165,-1.6171,-1.6175,-1.6186,-1.6182,-1.6181,-1.6181,-1.6181,-1.616,-1.6187,-1.6187,-1.6187,-1.6187,0,-1.5973,-1.5979,-1.6008,-1.6014,-1.6021,-1.6042,-1.6048,-1.6061,-1.6077,-1.6085,-1.6103,-1.611,-1.6133,-1.6142,-1.6156,-1.6163,-1.6167,-1.6174,-1.6177,-1.6172,-1.617,-1.6175,-1.6176,-1.6186,-1.6186,-1.6186,-1.6186,0,-1.595,-1.597,-1.5981,-1.6007,-1.6013,-1.6017,-1.6038,-1.6043,-1.6058,-1.6067,-1.6071,-1.6093,-1.6104,-1.6123,-1.614,-1.6149,-1.6153,-1.616,-1.6147,-1.6149,-1.6143,-1.6143,-1.6124,-1.6122,-1.6151,-1.615,-1.615,0,-1.5941,-1.5946,-1.5972,-1.5978,-1.5989,-1.6,-1.6009,-1.603,-1.6038,-1.6058,-1.6061,-1.6074,-1.6085,-1.6102,-1.6119,-1.6132,-1.6138,-1.6131,-1.614,-1.6134,-1.6137,-1.6136,-1.6136,-1.6128,-1.6128,-1.6127,-1.6127,0,-1.5923,-1.5932,-1.5944,-1.596,-1.597,-1.5983,-1.5997,-1.6001,-1.6024,-1.6032,-1.6045,-1.6054,-1.6071,-1.6083,-1.6098,-1.6108,-1.6121,-1.6124,-1.6123,-1.6118,-1.611,-1.6113,-1.614,-1.6124,-1.6125,-1.6125,-1.6125,-1.6125,-1.5906,-1.5911,-1.5929,-1.5942,-1.5955,-1.5967,-1.5973,-1.5988,-1.5999,-1.6015,-1.6026,-1.6037,-1.6053,-1.6074,-1.6084,-1.6092,-1.6098,-1.6098,-1.6097,-1.6097,-1.6094,-1.6109,-1.6095,-1.6095,-1.6095,-1.6096,-1.6096,0,-1.5888,-1.59,-1.5912,-1.5931,-1.594,-1.5952,-1.5967,-1.5974,-1.5984,-1.5998,-1.6009,-1.6022,-1.6034,-1.6051,-1.6064,-1.6067,-1.6073,-1.6069,-1.6069,-1.6071,-1.6089,-1.6087,-1.6064,-1.6064,-1.6064,-1.6064,-1.6064,-1.6064,-1.5879,-1.5888,-1.5899,-1.5914,-1.5926,-1.5938,-1.5945,-1.5956,-1.5967,-1.5981,-1.5991,-1.6003,-1.6018,-1.6031,-1.6042,-1.6047,-1.605,-1.6044,-1.6051,-1.6067,-1.607,-1.6073,-1.6071,-1.6045,-1.6045,-1.6032,-1.6032,-1.6032]}]]